Regional Weather Roundup
Issued by NWS

Home | Current Version | Previous Version | Text Only | Print | Product List | Glossary On
Versions: 1 2 3 4 5 6 7 8 9 10 11 12 13 14 15 16 17 18 19 20 21 22 23 24 25 26 27
000
ASUS43 KDMX 180007
RWRIA

WEATHER ROUNDUP FOR IOWA
NATIONAL WEATHER SERVICE DES MOINES IA
700 PM CDT THU APR 17 2014

NOTE: "FAIR" INDICATES FEW OR NO CLOUDS BELOW 12,000 FEET WITH NO
SIGNIFICANT WEATHER AND/OR OBSTRUCTIONS TO VISIBILITY.

* - THESE STATIONS ARE NOT NWS STATIONS...THUS NOT UNDER NWS
QUALITY CONTROL.  THEY ALSO DO NOT REPORT WEATHER SUCH
AS PRECIPITATION OR FOG.

IAZ001>003-012>014-020>022-031>034-043>046-180100-
   NORTHWEST IOWA

CITY           SKY/WX    TMP DP  RH WIND       PRES   REMARKS
CARROLL *      SUNNY     50  25  37 N3        30.24F
CHEROKEE *     SUNNY     52  27  37 N3        30.26S
DENISON *      SUNNY     52  25  35 CALM      30.23S
LE MARS *      PTSUNNY   48  25  40 N5        30.26S
ORANGE CITY *  SUNNY     48  23  37 CALM      30.26S
SHELDON *      SUNNY     45  27  49 CALM      30.25F
SIOUX CITY     PTSUNNY   51  23  33 N3        30.25F
6HR MIN TEMP:  45; 6HR MAX TEMP:  53;

SPENCER        SUNNY     45  28  51 N9        30.27S
6HR MIN TEMP:  39; 6HR MAX TEMP:  47;

STORM LAKE *   SUNNY     46  27  46 NE7       30.26R
$$

IAZ055>058-069>071-079>083-090>094-180100-
   SOUTHWEST IOWA

CITY           SKY/WX    TMP DP  RH WIND       PRES   REMARKS
ATLANTIC *     SUNNY     54  25  32 NW5       30.23F
AUDUBON *      SUNNY     54  18  24 NE5       30.25S
CLARINDA *     SUNNY     55  30  38 E3        30.26S
COUNCIL BLFS * SUNNY     52  27  37 NE3       30.23F
CRESTON *      SUNNY     52  28  40 NE5       30.24S
HARLAN  *      SUNNY     54  25  32 VRB3      30.27S
LAMONI         CLEAR     53  30  41 E3        30.24S
6HR MIN TEMP:  46; 6HR MAX TEMP:  55;

RED OAK *      SUNNY     55  28  35 CALM      30.24S
SHENANDOAH *   SUNNY     54  27  35 CALM      30.25S
$$

IAZ047>049-059>061-072>074-084-180100-
   CENTRAL IOWA

CITY           SKY/WX    TMP DP  RH WIND       PRES   REMARKS
AMES           CLEAR     50  28  42 N6        30.25R
6HR MIN TEMP:  42; 6HR MAX TEMP:  53;

ANKENY *       CLEAR     52  30  43 N6        30.25R
CHARITON *     CLEAR     52  30  43 CALM      30.25S
DES MOINES     PTCLDY    55  28  35 NE5       30.25S
6HR MIN TEMP:  44; 6HR MAX TEMP:  55;

GRINNELL*      CLEAR     48  30  49 N5        30.26S
KNOXVILLE *    CLEAR     52  30  43 CALM      30.25S
MARSHALLTOWN   CLEAR     47  32  56 N12       30.25S
6HR MIN TEMP:  38; 6HR MAX TEMP:  49;

NEWTON *       CLEAR     48  32  53 NE8       30.26S
PELLA *        CLEAR     52  32  46 N3        30.26F
PERRY *          N/A     54  23  30 N5        30.24S
$$

IAZ004>006-015-016-023>025-035-036-180100-
   NORTH CENTRAL IOWA

CITY           SKY/WX    TMP DP  RH WIND       PRES   REMARKS
ALGONA *       SUNNY     43  30  61 N8        30.27F
CLARION *      CLEAR     43  30  61 N8        30.27R
ESTHERVILLE    SUNNY     42  29  59 N8        30.27R
6HR MIN TEMP:  36; 6HR MAX TEMP:  44;

FORT DODGE *   SUNNY     46  28  49 N6        30.26F
MASON CITY     CLEAR     40  30  67 N10       30.28S WCI  33
6HR MIN TEMP:  33; 6HR MAX TEMP:  42;

FOREST CITY *  PTCLDY    39  32  75 N7        30.27S WCI  34
IOWA FALLS *     N/A     45  32  61 N6        30.26F
$$

IAZ007>011-017>019-026>030-037>042-050>054-066-180100-
   NORTHEAST IOWA

CITY           SKY/WX    TMP DP  RH WIND       PRES   REMARKS
CEDAR RAPIDS   PTCLDY    50  32  50 NW5       30.24R
6HR MIN TEMP:  44; 6HR MAX TEMP:  51;

CHARLES CITY * PTCLDY    41  32  70 N9        30.28R
CLINTON *      MOCLDY    54  34  47 NW8       30.26R
DECORAH *      MOCLDY    39  30  70 N9        30.26S WCI  33
DUBUQUE        CLEAR     48  35  60 N12       30.23R
6HR MIN TEMP:  48; 6HR MAX TEMP:  52;

MONTICELLO *   CLEAR     48  36  61 NW9       30.24S
OELWEIN *      CLEAR    N/A N/A N/A N12       30.27S
WATERLOO       CLEAR     44  31  60 N9        30.26F
6HR MIN TEMP:  42; 6HR MAX TEMP:  49;

$$

IAZ064-065-067-068-078-180100-
   EAST CENTRAL IOWA

CITY           SKY/WX    TMP DP  RH WIND       PRES   REMARKS
DAVENPORT      MOCLDY    53  34  48 W9        30.26R
6HR MIN TEMP:  49; 6HR MAX TEMP:  56;

IOWA CITY      PTCLDY    50  34  54 NW8       30.27R
6HR MIN TEMP:  44; 6HR MAX TEMP:  52;

MT. PLEASANT * MOCLDY    54  34  47 SW6       30.26R
MUSCATINE *    CLEAR     54  34  47 NW6       30.26R
QUAD CITIES    MOCLDY    53  34  48 SW3       30.24R HAZE
6HR MIN TEMP:  50; 6HR MAX TEMP:  56;

$$

IAZ062-063-075>077-085>089-095>099-180100-
   SOUTHEAST IOWA

CITY           SKY/WX    TMP DP  RH WIND       PRES   REMARKS
BURLINGTON     MOCLDY    51  37  58 S7        30.25S
6HR MIN TEMP:  46; 6HR MAX TEMP:  53;

FAIRFIELD *    CLEAR     52  32  46 CALM      30.26S
FORT MADISON * CLEAR     52  37  58 SW6       30.27S
KEOKUK *       CLEAR     50  36  57 S6        30.26S
OSKALOOSA *      N/A     50  32  49 CALM      30.27S
CENTERVILLE *  CLEAR     52  32  46 CALM      30.27S
OTTUMWA        PTCLDY    51  32  48 N6        30.26R
6HR MIN TEMP:  44; 6HR MAX TEMP:  52;

WASHINGTON *   CLEAR     52  34  50 NW8       30.26S
$$

ABBREVIATIONS USED IN REMARKS
   TC - TEMPERATURES IN CELSIUS
  WCI - WIND CHILL INDEX
   HX - HEAT INDEX
  VSB - VISIBILITY
$$




USA.gov is the U.S. government's official web portal to all federal, state and local government web resources and services.